Time,TemperatureF,DewpointF,PressureIn,WindDirection,WindDirectionDegrees,WindSpeedMPH,WindSpeedGustMPH,Humidity,HourlyPrecipIn,Conditions,Clouds,dailyrainin,SoftwareType,DateUTC
2013-07-12 00:09:00,73.9,62.0,29.91,ESE,109,7.0,12.0,66,0.00,,,0.00,weatherlink.com 1.10,2013-07-12 05:09:00,
2013-07-12 00:24:00,73.7,62.0,29.91,SSE,147,5.0,11.0,66,0.00,,,0.00,weatherlink.com 1.10,2013-07-12 05:24:00,
2013-07-12 00:39:00,73.6,61.0,29.92,SSE,148,6.0,12.0,65,0.00,,,0.00,weatherlink.com 1.10,2013-07-12 05:39:00,
2013-07-12 00:54:00,73.4,61.0,29.92,ESE,110,7.0,10.0,66,0.00,,,0.00,weatherlink.com 1.10,2013-07-12 05:54:00,
2013-07-12 01:09:00,72.9,61.0,29.92,ESE,117,3.0,10.0,67,0.00,,,0.00,weatherlink.com 1.10,2013-07-12 06:09:00,
2013-07-12 01:24:00,72.7,61.0,29.91,SE,144,8.0,14.0,67,0.00,,,0.00,weatherlink.com 1.10,2013-07-12 06:24:00,
2013-07-12 01:39:00,72.5,61.0,29.91,SE,134,7.0,11.0,67,0.00,,,0.00,weatherlink.com 1.10,2013-07-12 06:39:00,
2013-07-12 01:54:00,72.5,61.0,29.91,ESE,121,7.0,11.0,67,0.00,,,0.00,weatherlink.com 1.10,2013-07-12 06:54:00,
2013-07-12 02:09:00,72.2,61.0,29.91,SE,127,7.0,12.0,67,0.00,,,0.00,weatherlink.com 1.10,2013-07-12 07:09:00,
2013-07-12 02:24:00,71.9,61.0,29.90,SSE,150,5.0,12.0,68,0.00,,,0.00,weatherlink.com 1.10,2013-07-12 07:24:00,
2013-07-12 02:39:00,71.4,61.0,29.90,SE,135,5.0,9.0,69,0.00,,,0.00,weatherlink.com 1.10,2013-07-12 07:39:00,
2013-07-12 02:54:00,71.1,61.0,29.90,SSE,150,5.0,10.0,70,0.00,,,0.00,weatherlink.com 1.10,2013-07-12 07:54:00,
2013-07-12 03:09:00,70.8,61.0,29.91,SE,140,5.0,7.0,70,0.00,,,0.00,weatherlink.com 1.10,2013-07-12 08:09:00,
2013-07-12 03:24:00,71.0,60.0,29.90,South,169,4.0,12.0,69,0.00,,,0.00,weatherlink.com 1.10,2013-07-12 08:24:00,
2013-07-12 03:39:00,71.2,60.0,29.90,SSE,167,2.0,12.0,68,0.00,,,0.00,weatherlink.com 1.10,2013-07-12 08:39:00,
2013-07-12 03:54:00,70.8,60.0,29.90,SE,128,3.0,8.0,68,0.00,,,0.00,weatherlink.com 1.10,2013-07-12 08:54:00,
2013-07-12 04:10:00,70.5,59.0,29.90,SSE,155,6.0,10.0,68,0.00,,,0.00,weatherlink.com 1.10,2013-07-12 09:10:00,
2013-07-12 04:25:00,70.4,59.0,29.90,SE,132,5.0,8.0,68,0.00,,,0.00,weatherlink.com 1.10,2013-07-12 09:25:00,
2013-07-12 04:40:00,70.4,59.0,29.90,SSE,153,5.0,9.0,68,0.00,,,0.00,weatherlink.com 1.10,2013-07-12 09:40:00,
2013-07-12 04:55:00,70.2,60.0,29.90,SE,136,4.0,9.0,69,0.00,,,0.00,weatherlink.com 1.10,2013-07-12 09:55:00,
2013-07-12 05:10:00,69.9,59.0,29.90,ESE,123,5.0,11.0,69,0.00,,,0.00,weatherlink.com 1.10,2013-07-12 10:10:00,
2013-07-12 05:25:00,69.6,59.0,29.90,ESE,119,8.0,12.0,70,0.00,,,0.00,weatherlink.com 1.10,2013-07-12 10:25:00,
2013-07-12 05:40:00,69.3,60.0,29.90,SE,142,4.0,13.0,71,0.00,,,0.00,weatherlink.com 1.10,2013-07-12 10:40:00,
2013-07-12 05:55:00,69.0,60.0,29.90,SE,145,2.0,12.0,72,0.00,,,0.00,weatherlink.com 1.10,2013-07-12 10:55:00,
2013-07-12 06:10:00,68.8,60.0,29.91,SE,144,6.0,10.0,73,0.00,,,0.00,weatherlink.com 1.10,2013-07-12 11:10:00,
2013-07-12 06:28:00,68.8,60.0,29.91,SSE,149,4.0,12.0,74,0.00,,,0.00,weatherlink.com 1.10,2013-07-12 11:28:00,
2013-07-12 06:40:00,69.0,60.0,29.91,SSE,165,8.0,12.0,74,0.00,,,0.00,weatherlink.com 1.10,2013-07-12 11:40:00,
2013-07-12 06:55:00,69.3,61.0,29.91,SSE,150,8.0,14.0,74,0.00,,,0.00,weatherlink.com 1.10,2013-07-12 11:55:00,
2013-07-12 07:10:00,69.8,61.0,29.91,SSE,165,3.0,13.0,74,0.00,,,0.00,weatherlink.com 1.10,2013-07-12 12:10:00,
2013-07-12 07:25:00,70.3,62.0,29.91,South,183,6.0,15.0,74,0.00,,,0.00,weatherlink.com 1.10,2013-07-12 12:25:00,
2013-07-12 07:40:00,70.8,62.0,29.91,SSE,159,12.0,17.0,73,0.00,,,0.00,weatherlink.com 1.10,2013-07-12 12:40:00,
2013-07-12 07:55:00,71.2,62.0,29.92,SSE,157,14.0,20.0,72,0.00,,,0.00,weatherlink.com 1.10,2013-07-12 12:55:00,
2013-07-12 08:10:00,72.0,63.0,29.92,South,171,12.0,19.0,72,0.00,,,0.00,weatherlink.com 1.10,2013-07-12 13:10:00,
2013-07-12 08:25:00,72.4,63.0,29.91,SSE,151,11.0,20.0,72,0.00,,,0.00,weatherlink.com 1.10,2013-07-12 13:25:00,
2013-07-12 08:40:00,73.2,63.0,29.92,SE,140,8.0,16.0,71,0.00,,,0.00,weatherlink.com 1.10,2013-07-12 13:40:00,
2013-07-12 08:55:00,73.7,63.0,29.92,South,189,9.0,20.0,70,0.00,,,0.00,weatherlink.com 1.10,2013-07-12 13:55:00,
2013-07-12 09:10:00,74.2,64.0,29.92,SSE,148,11.0,19.0,70,0.00,,,0.00,weatherlink.com 1.10,2013-07-12 14:10:00,
2013-07-12 09:25:00,74.8,64.0,29.91,ESE,123,9.0,19.0,68,0.00,,,0.00,weatherlink.com 1.10,2013-07-12 14:25:00,
2013-07-12 09:40:00,75.8,64.0,29.91,SSE,159,12.0,18.0,68,0.00,,,0.00,weatherlink.com 1.10,2013-07-12 14:40:00,
2013-07-12 09:55:00,76.1,65.0,29.91,South,178,11.0,19.0,68,0.00,,,0.00,weatherlink.com 1.10,2013-07-12 14:55:00,
2013-07-12 10:10:00,76.4,65.0,29.91,SSE,163,12.0,21.0,67,0.00,,,0.00,weatherlink.com 1.10,2013-07-12 15:10:00,
2013-07-12 10:25:00,76.8,65.0,29.91,SSE,162,11.0,21.0,66,0.00,,,0.00,weatherlink.com 1.10,2013-07-12 15:25:00,
2013-07-12 10:40:00,78.1,66.0,29.90,SSW,210,11.0,19.0,66,0.00,,,0.00,weatherlink.com 1.10,2013-07-12 15:40:00,
2013-07-12 10:55:00,78.7,65.0,29.90,South,169,7.0,22.0,63,0.00,,,0.00,weatherlink.com 1.10,2013-07-12 15:55:00,
2013-07-12 11:10:00,79.3,66.0,29.90,ESE,122,3.0,17.0,63,0.00,,,0.00,weatherlink.com 1.10,2013-07-12 16:10:00,
2013-07-12 11:25:00,78.6,66.0,29.89,SSE,166,6.0,19.0,65,0.00,,,0.00,weatherlink.com 1.10,2013-07-12 16:25:00,
2013-07-12 11:41:00,79.9,66.0,29.89,SE,135,10.0,19.0,63,0.00,,,0.00,weatherlink.com 1.10,2013-07-12 16:41:00,
2013-07-12 11:56:00,80.4,66.0,29.88,SSE,158,18.0,20.0,62,0.00,,,0.00,weatherlink.com 1.10,2013-07-12 16:56:00,
2013-07-12 12:26:00,81.2,68.0,29.88,SSE,156,13.0,18.0,64,0.00,,,0.00,weatherlink.com 1.10,2013-07-12 17:26:00,
2013-07-12 12:56:00,82.5,68.0,29.87,SE,124,11.0,18.0,61,0.00,,,0.00,weatherlink.com 1.10,2013-07-12 17:56:00,
2013-07-12 13:11:00,83.1,68.0,29.87,SE,136,9.0,17.0,61,0.00,,,0.00,weatherlink.com 1.10,2013-07-12 18:11:00,
2013-07-12 13:26:00,83.9,69.0,29.87,ESE,123,9.0,18.0,62,0.00,,,0.00,weatherlink.com 1.10,2013-07-12 18:26:00,
2013-07-12 13:41:00,84.7,70.0,29.86,SSE,153,14.0,15.0,62,0.00,,,0.00,weatherlink.com 1.10,2013-07-12 18:41:00,
2013-07-12 13:56:00,84.5,70.0,29.86,SE,131,14.0,17.0,62,0.00,,,0.00,weatherlink.com 1.10,2013-07-12 18:56:00,
2013-07-12 14:11:00,85.2,70.0,29.86,East,94,9.0,15.0,61,0.00,,,0.00,weatherlink.com 1.10,2013-07-12 19:11:00,
2013-07-12 14:26:00,85.4,70.0,29.85,SSE,155,8.0,18.0,61,0.00,,,0.00,weatherlink.com 1.10,2013-07-12 19:26:00,
2013-07-12 14:41:00,85.5,70.0,29.85,SE,124,11.0,19.0,61,0.00,,,0.00,weatherlink.com 1.10,2013-07-12 19:41:00,
2013-07-12 14:56:00,85.9,71.0,29.84,South,189,7.0,17.0,61,0.00,,,0.00,weatherlink.com 1.10,2013-07-12 19:56:00,
2013-07-12 15:11:00,86.0,71.0,29.84,SE,126,6.0,22.0,61,0.00,,,0.00,weatherlink.com 1.10,2013-07-12 20:11:00,
2013-07-12 15:26:00,85.9,71.0,29.84,ESE,111,4.0,23.0,61,0.00,,,0.00,weatherlink.com 1.10,2013-07-12 20:26:00,
2013-07-12 15:56:00,86.7,72.0,29.84,ESE,123,11.0,19.0,61,0.00,,,0.00,weatherlink.com 1.10,2013-07-12 20:56:00,
2013-07-12 16:11:00,86.9,72.0,29.84,ESE,112,13.0,23.0,61,0.00,,,0.00,weatherlink.com 1.10,2013-07-12 21:11:00,
2013-07-12 16:41:00,87.3,72.0,29.83,ESE,122,12.0,21.0,61,0.00,,,0.00,weatherlink.com 1.10,2013-07-12 21:41:00,
2013-07-12 16:56:00,87.4,72.0,29.83,ESE,112,7.0,24.0,61,0.00,,,0.00,weatherlink.com 1.10,2013-07-12 21:56:00,
2013-07-12 17:11:00,87.5,73.0,29.83,SE,128,16.0,16.0,62,0.00,,,0.00,weatherlink.com 1.10,2013-07-12 22:11:00,
2013-07-12 17:41:00,87.2,73.0,29.83,ESE,115,12.0,18.0,62,0.00,,,0.00,weatherlink.com 1.10,2013-07-12 22:41:00,
2013-07-12 17:56:00,87.4,73.0,29.82,SE,139,4.0,14.0,62,0.00,,,0.00,weatherlink.com 1.10,2013-07-12 22:56:00,
2013-07-12 18:11:00,87.0,73.0,29.82,SSE,153,4.0,20.0,63,0.00,,,0.00,weatherlink.com 1.10,2013-07-12 23:11:00,
2013-07-12 18:26:00,86.5,71.0,29.82,SSE,157,4.0,17.0,61,0.00,,,0.00,weatherlink.com 1.10,2013-07-12 23:26:00,
2013-07-12 18:41:00,86.2,72.0,29.82,SE,124,11.0,16.0,62,0.00,,,0.00,weatherlink.com 1.10,2013-07-12 23:41:00,
2013-07-12 19:11:00,85.3,71.0,29.82,SE,141,9.0,18.0,62,0.00,,,0.00,weatherlink.com 1.10,2013-07-13 00:11:00,
2013-07-12 19:26:00,85.2,71.0,29.82,ESE,121,4.0,15.0,63,0.00,,,0.00,weatherlink.com 1.10,2013-07-13 00:26:00,
2013-07-12 19:41:00,84.7,71.0,29.82,SE,132,5.0,14.0,63,0.00,,,0.00,weatherlink.com 1.10,2013-07-13 00:41:00,
2013-07-12 20:26:00,83.0,70.0,29.82,ESE,115,10.0,14.0,64,0.00,,,0.00,weatherlink.com 1.10,2013-07-13 01:26:00,
2013-07-12 21:11:00,81.7,69.0,29.82,East,101,9.0,17.0,65,0.00,,,0.00,weatherlink.com 1.10,2013-07-13 02:11:00,
2013-07-12 21:26:00,81.5,69.0,29.83,SSE,166,5.0,15.0,65,0.00,,,0.00,weatherlink.com 1.10,2013-07-13 02:26:00,
2013-07-12 21:41:00,81.1,68.0,29.83,ESE,120,5.0,18.0,65,0.00,,,0.00,weatherlink.com 1.10,2013-07-13 02:41:00,
2013-07-12 22:12:00,80.5,67.0,29.83,ESE,121,10.0,20.0,64,0.00,,,0.00,weatherlink.com 1.10,2013-07-13 03:12:00,
2013-07-12 22:27:00,80.1,66.0,29.83,SE,126,9.0,21.0,63,0.00,,,0.00,weatherlink.com 1.10,2013-07-13 03:27:00,
2013-07-12 22:42:00,79.8,66.0,29.83,ESE,111,8.0,15.0,63,0.00,,,0.00,weatherlink.com 1.10,2013-07-13 03:42:00,
2013-07-12 22:57:00,79.5,66.0,29.83,SSE,163,10.0,17.0,63,0.00,,,0.00,weatherlink.com 1.10,2013-07-13 03:57:00,
2013-07-12 23:12:00,79.5,65.0,29.84,SE,130,5.0,17.0,62,0.00,,,0.00,weatherlink.com 1.10,2013-07-13 04:12:00,
2013-07-12 23:27:00,79.2,65.0,29.84,ESE,117,4.0,18.0,62,0.00,,,0.00,weatherlink.com 1.10,2013-07-13 04:27:00,
2013-07-12 23:42:00,78.9,65.0,29.84,SE,138,8.0,15.0,62,0.00,,,0.00,weatherlink.com 1.10,2013-07-13 04:42:00,
2013-07-12 23:57:00,78.6,64.0,29.84,SE,136,6.0,15.0,62,0.00,,,0.00,weatherlink.com 1.10,2013-07-13 04:57:00,